Location: Navarre
(52.9016°N, 113.4144°W)
Time: 18:28:46
(UTC+00:00)

Envisat - Visible Passes

Search period start: 30 November 2023 00:00
Search period end: 10 December 2023 00:00
Orbit: 762 x 764 km, 98.3° (Epoch: 30 November)

Date Brightness Start Highest point End Pass type
(mag) Time Alt. Az. Time Alt. Az. Time Alt. Az.
30 Nov 5.4 11:25:44 10° NNE 11:26:29 14° NNE 11:26:29 14° NNE visible
30 Nov 5.0 13:05:41 10° N 13:06:38 14° NNW 13:06:38 14° NNW visible
01 Dec 5.8 10:48:36 10° NNE 10:48:42 10° NNE 10:48:42 10° NNE visible
01 Dec 5.0 12:27:50 10° N 12:28:51 15° N 12:28:51 15° N visible
02 Dec 5.3 11:50:18 10° N 11:51:04 14° N 11:51:04 14° N visible
02 Dec 5.1 13:30:55 10° NNW 13:31:13 11° NNW 13:31:13 11° NNW visible
03 Dec 5.6 11:13:00 10° NNE 11:13:17 12° NNE 11:13:17 12° NNE visible
03 Dec 5.1 12:52:42 10° N 12:53:27 13° NNW 12:53:27 13° NNW visible
04 Dec 5.2 12:14:58 10° N 12:15:40 14° N 12:15:40 14° N visible
05 Dec 5.5 11:37:30 10° NNE 11:37:53 12° NNE 11:37:53 12° NNE visible
05 Dec 5.1 13:17:45 10° NNW 13:18:03 11° NNW 13:18:03 11° NNW visible
06 Dec 5.2 12:39:45 10° N 12:40:17 12° N 12:40:17 12° N visible
07 Dec 6.1 00:04:51 10° W 00:05:46 10° W 00:06:41 10° WNW visible
07 Dec 5.4 12:02:07 10° N 12:02:31 12° N 12:02:31 12° N visible
08 Dec 5.7 11:24:44 10° NNE 11:24:45 10° NNE 11:24:45 10° NNE visible
08 Dec 5.2 13:04:40 10° N 13:04:54 11° NNW 13:04:54 11° NNW visible
09 Dec 5.3 12:26:50 10° N 12:27:08 12° N 12:27:08 12° N visible
